MAX VALIER SAT

Last updated on Mon Jul 01 2024 00:02:59 GMT+0000 (Coordinated Universal Time)

1 42778U 17036P 24181.51780098 .07500886 23432-5 86307-3 0 9999 2 42778 97.0566 220.7984 0007714 249.3707 110.6764 16.36858806391577

Satellite not in orbit

MAX VALIER SAT